Location: ?ernice
(48.8383°N, 14.3803°E)
Time: 06:22:23
(UTC+00:00)

Cosmos 2333 - Pass Details

Date: 23 May 2024
Orbit: 828 x 865 km, 70.9° (Epoch: 15 June)

Event Time Altitude Azimuth Distance (km) Brightness Sun altitude
Rises 01:42:55 0° 330° (NNW) 3,425 7.7 -11.5°
Reaches altitude 10° 01:45:22 10° 330° (NNW) 2,491 6.9 -11.3°
Maximum altitude 01:51:06 82° 244° (WSW) 872 4.2 -10.7°
Drops below altitude 10° 01:56:51 10° 157° (SSE) 2,495 6.4 -10.1°
Sets 01:59:18 0° 157° (SSE) 3,431 7.1 -9.8°
